Time,TemperatureF,DewpointF,PressureIn,WindDirection,WindDirectionDegrees,WindSpeedMPH,WindSpeedGustMPH,Humidity,HourlyPrecipIn,Conditions,Clouds,dailyrainin,SoftwareType,DateUTC
2013-03-08 00:09:00,48.9,46.4,29.84,WSW,248,5.0,7.0,91,0.25,,,0.05,Wunderground v.1.15,2013-03-08 08:09:00,
2013-03-08 00:19:00,48.6,46.1,29.84,WSW,247,2.0,2.0,91,0.21,,,0.10,Wunderground v.1.15,2013-03-08 08:19:00,
2013-03-08 00:29:00,48.6,46.1,29.84,WSW,247,0.0,1.0,91,0.40,,,0.15,Wunderground v.1.15,2013-03-08 08:29:00,
2013-03-08 00:39:00,48.8,46.3,29.83,WSW,248,2.0,3.0,91,0.12,,,0.17,Wunderground v.1.15,2013-03-08 08:39:00,
2013-03-08 00:49:00,48.5,46.0,29.82,WNW,302,3.0,3.0,91,0.14,,,0.20,Wunderground v.1.15,2013-03-08 08:49:00,
2013-03-08 00:59:00,48.3,45.8,29.82,NW,308,2.0,2.0,91,0.08,,,0.21,Wunderground v.1.15,2013-03-08 08:59:00,
2013-03-08 01:09:00,48.2,45.7,29.82,NW,318,3.0,3.0,91,0.00,,,0.21,Wunderground v.1.15,2013-03-08 09:09:00,
2013-03-08 01:19:00,48.2,45.7,29.82,NW,319,2.0,4.0,91,0.00,,,0.21,Wunderground v.1.15,2013-03-08 09:19:00,
2013-03-08 01:29:00,48.2,45.7,29.82,NNW,332,2.0,2.0,91,0.00,,,0.22,Wunderground v.1.15,2013-03-08 09:29:00,
2013-03-08 01:39:00,48.2,45.7,29.82,NW,304,1.0,3.0,91,0.00,,,0.23,Wunderground v.1.15,2013-03-08 09:39:00,
2013-03-08 01:49:00,47.0,44.2,29.83,NNW,330,7.0,7.0,90,0.10,,,0.25,Wunderground v.1.15,2013-03-08 09:49:00,
2013-03-08 01:59:00,46.2,44.6,29.83,NW,323,6.0,7.0,94,0.15,,,0.27,Wunderground v.1.15,2013-03-08 09:59:00,
2013-03-08 02:09:00,46.1,43.6,29.82,NNE,20,7.0,7.0,91,0.04,,,0.27,Wunderground v.1.15,2013-03-08 10:09:00,
2013-03-08 02:19:00,45.7,42.9,29.81,NNE,30,7.0,7.0,90,0.00,,,0.28,Wunderground v.1.15,2013-03-08 10:19:00,
2013-03-08 02:29:00,45.5,42.7,29.81,NNE,30,3.0,5.0,90,0.00,,,0.28,Wunderground v.1.15,2013-03-08 10:29:00,
2013-03-08 02:39:00,45.4,42.6,29.80,NNE,31,4.0,4.0,90,0.00,,,0.28,Wunderground v.1.15,2013-03-08 10:39:00,
2013-03-08 02:49:00,45.5,42.7,29.79,NNE,31,3.0,3.0,90,0.00,,,0.28,Wunderground v.1.15,2013-03-08 10:49:00,
2013-03-08 02:59:00,45.7,43.2,29.79,North,355,2.0,3.0,91,0.00,,,0.28,Wunderground v.1.15,2013-03-08 10:59:00,
2013-03-08 03:09:00,46.0,43.2,29.80,North,355,1.0,1.0,90,0.00,,,0.28,Wunderground v.1.15,2013-03-08 11:09:00,
2013-03-08 03:19:00,46.0,43.2,29.80,North,355,0.0,0.0,90,0.00,,,0.28,Wunderground v.1.15,2013-03-08 11:19:00,
2013-03-08 03:29:00,46.0,43.2,29.80,North,355,0.0,1.0,90,0.00,,,0.28,Wunderground v.1.15,2013-03-08 11:29:00,
2013-03-08 03:39:00,46.0,43.2,29.80,North,355,1.0,1.0,90,0.00,,,0.28,Wunderground v.1.15,2013-03-08 11:39:00,
2013-03-08 03:49:00,46.2,43.4,29.81,North,355,1.0,1.0,90,0.00,,,0.28,Wunderground v.1.15,2013-03-08 11:49:00,
2013-03-08 03:59:00,46.4,43.6,29.81,North,355,1.0,1.0,90,0.00,,,0.28,Wunderground v.1.15,2013-03-08 11:59:00,
2013-03-08 04:09:00,46.4,43.3,29.81,North,355,1.0,2.0,89,0.00,,,0.28,Wunderground v.1.15,2013-03-08 12:09:00,
2013-03-08 04:19:00,46.2,43.1,29.79,North,355,2.0,2.0,89,0.00,,,0.28,Wunderground v.1.15,2013-03-08 12:19:00,
2013-03-08 04:29:00,46.0,42.9,29.79,WNW,298,2.0,2.0,89,0.00,,,0.28,Wunderground v.1.15,2013-03-08 12:29:00,
2013-03-08 04:39:00,46.0,42.9,29.81,WNW,298,0.0,0.0,89,0.00,,,0.28,Wunderground v.1.15,2013-03-08 12:39:00,
2013-03-08 04:49:00,46.0,42.9,29.81,WNW,298,0.0,0.0,89,0.00,,,0.28,Wunderground v.1.15,2013-03-08 12:49:00,
2013-03-08 04:59:00,46.0,42.9,29.81,WNW,298,0.0,0.0,89,0.00,,,0.28,Wunderground v.1.15,2013-03-08 12:59:00,
2013-03-08 05:09:00,46.0,42.9,29.81,WNW,298,0.0,0.0,89,0.00,,,0.28,Wunderground v.1.15,2013-03-08 13:09:00,
2013-03-08 05:19:00,46.0,42.9,29.81,WNW,298,0.0,0.0,89,0.00,,,0.28,Wunderground v.1.15,2013-03-08 13:19:00,
2013-03-08 05:29:00,46.0,42.9,29.81,WNW,298,0.0,0.0,89,0.00,,,0.28,Wunderground v.1.15,2013-03-08 13:29:00,
2013-03-08 05:39:00,45.7,42.6,29.81,WNW,298,0.0,0.0,89,0.00,,,0.28,Wunderground v.1.15,2013-03-08 13:39:00,
2013-03-08 05:49:00,45.5,42.4,29.81,WNW,298,0.0,0.0,89,0.00,,,0.28,Wunderground v.1.15,2013-03-08 13:49:00,
2013-03-08 05:59:00,45.5,42.4,29.81,WNW,298,1.0,1.0,89,0.00,,,0.28,Wunderground v.1.15,2013-03-08 13:59:00,
2013-03-08 06:09:00,45.8,42.7,29.82,WNW,298,2.0,2.0,89,0.00,,,0.28,Wunderground v.1.15,2013-03-08 14:09:00,
2013-03-08 06:19:00,45.7,42.6,29.82,WNW,298,0.0,0.0,89,0.00,,,0.28,Wunderground v.1.15,2013-03-08 14:19:00,
2013-03-08 06:29:00,45.5,42.4,29.82,WNW,298,0.0,0.0,89,0.00,,,0.28,Wunderground v.1.15,2013-03-08 14:29:00,
2013-03-08 06:39:00,45.5,42.4,29.82,WNW,298,0.0,0.0,89,0.00,,,0.28,Wunderground v.1.15,2013-03-08 14:39:00,
2013-03-08 06:49:00,45.8,42.7,29.82,WNW,298,0.0,0.0,89,0.00,,,0.28,Wunderground v.1.15,2013-03-08 14:49:00,
2013-03-08 06:59:00,46.8,43.7,29.82,WNW,298,0.0,0.0,89,0.00,,,0.28,Wunderground v.1.15,2013-03-08 14:59:00,
2013-03-08 07:09:00,47.9,44.8,29.83,WNW,298,0.0,3.0,89,0.00,,,0.28,Wunderground v.1.15,2013-03-08 15:09:00,
2013-03-08 07:19:00,48.6,44.9,29.84,WNW,298,2.0,2.0,87,0.00,,,0.28,Wunderground v.1.15,2013-03-08 15:19:00,
2013-03-08 07:29:00,49.1,45.1,29.84,WNW,298,1.0,1.0,86,0.00,,,0.28,Wunderground v.1.15,2013-03-08 15:29:00,
2013-03-08 07:39:00,49.1,44.8,29.85,WNW,298,0.0,0.0,85,0.00,,,0.28,Wunderground v.1.15,2013-03-08 15:39:00,
2013-03-08 07:49:00,50.5,45.8,29.86,WNW,298,1.0,2.0,84,0.00,,,0.28,Wunderground v.1.15,2013-03-08 15:49:00,
2013-03-08 07:59:00,51.4,46.1,29.86,North,9,1.0,1.0,82,0.00,,,0.28,Wunderground v.1.15,2013-03-08 15:59:00,
2013-03-08 08:09:00,51.0,45.0,29.87,North,9,0.0,0.0,80,0.00,,,0.28,Wunderground v.1.15,2013-03-08 16:09:00,
2013-03-08 08:19:00,52.0,45.7,29.87,North,9,1.0,2.0,79,0.00,,,0.28,Wunderground v.1.15,2013-03-08 16:19:00,
2013-03-08 08:29:00,52.5,45.5,29.87,North,10,1.0,1.0,77,0.00,,,0.28,Wunderground v.1.15,2013-03-08 16:29:00,
2013-03-08 08:39:00,53.3,45.9,29.88,North,9,0.0,1.0,76,0.00,,,0.28,Wunderground v.1.15,2013-03-08 16:39:00,
2013-03-08 08:49:00,53.6,45.2,29.88,North,9,0.0,0.0,73,0.00,,,0.28,Wunderground v.1.15,2013-03-08 16:49:00,
2013-03-08 08:59:00,52.9,44.5,29.88,North,5,0.0,5.0,73,0.00,,,0.28,Wunderground v.1.15,2013-03-08 16:59:00,
2013-03-08 09:09:00,52.2,44.2,29.88,SW,233,4.0,4.0,74,0.00,,,0.28,Wunderground v.1.15,2013-03-08 17:09:00,
2013-03-08 09:19:00,52.9,44.8,29.88,WSW,244,4.0,4.0,74,0.00,,,0.28,Wunderground v.1.15,2013-03-08 17:19:00,
2013-03-08 09:29:00,52.6,43.5,29.88,West,259,5.0,5.0,71,0.00,,,0.28,Wunderground v.1.15,2013-03-08 17:29:00,
2013-03-08 09:39:00,52.9,43.7,29.88,WNW,286,4.0,9.0,71,0.00,,,0.28,Wunderground v.1.15,2013-03-08 17:39:00,
2013-03-08 09:49:00,52.9,43.0,29.89,WSW,257,5.0,5.0,69,0.00,,,0.29,Wunderground v.1.15,2013-03-08 17:49:00,
2013-03-08 09:59:00,53.5,41.6,29.89,West,280,6.0,7.0,64,0.00,,,0.29,Wunderground v.1.15,2013-03-08 17:59:00,
2013-03-08 10:09:00,54.4,42.5,29.89,West,280,5.0,5.0,64,0.00,,,0.29,Wunderground v.1.15,2013-03-08 18:09:00,
2013-03-08 10:19:00,55.0,42.6,29.90,West,276,6.0,9.0,63,0.00,,,0.29,Wunderground v.1.15,2013-03-08 18:19:00,
2013-03-08 10:29:00,54.5,41.7,29.90,WNW,298,7.0,7.0,62,0.00,,,0.29,Wunderground v.1.15,2013-03-08 18:29:00,
2013-03-08 10:39:00,55.4,42.6,29.90,West,263,5.0,5.0,62,0.00,,,0.29,Wunderground v.1.15,2013-03-08 18:39:00,
2013-03-08 10:49:00,55.7,42.9,29.90,West,260,6.0,6.0,62,0.00,,,0.29,Wunderground v.1.15,2013-03-08 18:49:00,
2013-03-08 10:59:00,55.1,42.3,29.90,West,269,5.0,5.0,62,0.00,,,0.29,Wunderground v.1.15,2013-03-08 18:59:00,
2013-03-08 11:09:00,55.1,42.3,29.90,West,277,7.0,7.0,62,0.00,,,0.29,Wunderground v.1.15,2013-03-08 19:09:00,
2013-03-08 11:19:00,54.7,41.9,29.90,WSW,255,8.0,8.0,62,0.00,,,0.29,Wunderground v.1.15,2013-03-08 19:19:00,
2013-03-08 11:29:00,54.5,41.7,29.90,West,275,8.0,8.0,62,0.00,,,0.29,Wunderground v.1.15,2013-03-08 19:29:00,
2013-03-08 11:39:00,54.7,41.9,29.90,SW,234,9.0,9.0,62,0.00,,,0.29,Wunderground v.1.15,2013-03-08 19:39:00,
2013-03-08 11:49:00,54.5,40.0,29.90,NNW,327,8.0,8.0,58,0.00,,,0.29,Wunderground v.1.15,2013-03-08 19:49:00,
2013-03-08 11:59:00,54.8,40.7,29.90,WNW,294,5.0,7.0,59,0.00,,,0.29,Wunderground v.1.15,2013-03-08 19:59:00,
2013-03-08 12:09:00,54.7,39.3,29.90,WNW,288,7.0,7.0,56,0.00,,,0.29,Wunderground v.1.15,2013-03-08 20:09:00,
2013-03-08 12:19:00,55.6,42.4,29.91,WNW,290,6.0,6.0,61,0.00,,,0.29,Wunderground v.1.15,2013-03-08 20:19:00,
2013-03-08 12:29:00,55.7,42.0,29.91,West,268,6.0,7.0,60,0.00,,,0.29,Wunderground v.1.15,2013-03-08 20:29:00,
2013-03-08 12:39:00,55.6,41.9,29.91,NNW,337,7.0,7.0,60,0.00,,,0.29,Wunderground v.1.15,2013-03-08 20:39:00,
2013-03-08 12:49:00,56.0,42.7,29.90,WSW,258,8.0,8.0,61,0.00,,,0.29,Wunderground v.1.15,2013-03-08 20:49:00,
2013-03-08 12:59:00,56.0,42.3,29.90,NW,312,7.0,7.0,60,0.00,,,0.29,Wunderground v.1.15,2013-03-08 20:59:00,
2013-03-08 13:09:00,56.5,42.3,29.90,WSW,244,8.0,13.0,59,0.00,,,0.29,Wunderground v.1.15,2013-03-08 21:09:00,
2013-03-08 13:19:00,56.2,41.2,29.90,West,263,8.0,14.0,57,0.00,,,0.29,Wunderground v.1.15,2013-03-08 21:19:00,
2013-03-08 13:29:00,56.6,43.3,29.90,WSW,256,9.0,9.0,61,0.00,,,0.29,Wunderground v.1.15,2013-03-08 21:29:00,
2013-03-08 13:39:00,56.9,43.2,29.89,NW,323,8.0,8.0,60,0.00,,,0.29,Wunderground v.1.15,2013-03-08 21:39:00,
2013-03-08 13:49:00,57.2,43.4,29.88,WSW,242,7.0,10.0,60,0.00,,,0.29,Wunderground v.1.15,2013-03-08 21:49:00,
2013-03-08 13:59:00,57.2,43.9,29.88,West,275,10.0,14.0,61,0.00,,,0.29,Wunderground v.1.15,2013-03-08 21:59:00,
2013-03-08 14:09:00,57.2,43.9,29.89,WSW,257,8.0,8.0,61,0.00,,,0.29,Wunderground v.1.15,2013-03-08 22:09:00,
2013-03-08 14:19:00,57.6,43.4,29.88,WNW,295,7.0,11.0,59,0.00,,,0.29,Wunderground v.1.15,2013-03-08 22:19:00,
2013-03-08 14:29:00,57.3,43.5,29.88,NW,311,9.0,9.0,60,0.00,,,0.29,Wunderground v.1.15,2013-03-08 22:29:00,
2013-03-08 14:39:00,57.3,45.2,29.89,WSW,254,8.0,11.0,64,0.00,,,0.29,Wunderground v.1.15,2013-03-08 22:39:00,
2013-03-08 14:49:00,56.9,44.8,29.88,WNW,296,8.0,10.0,64,0.00,,,0.29,Wunderground v.1.15,2013-03-08 22:49:00,
2013-03-08 14:59:00,57.0,44.5,29.88,West,269,8.0,13.0,63,0.00,,,0.29,Wunderground v.1.15,2013-03-08 22:59:00,
2013-03-08 15:09:00,57.3,44.4,29.89,West,279,9.0,11.0,62,0.00,,,0.29,Wunderground v.1.15,2013-03-08 23:09:00,
2013-03-08 15:19:00,57.6,45.1,29.89,West,275,8.0,8.0,63,0.00,,,0.29,Wunderground v.1.15,2013-03-08 23:19:00,
2013-03-08 15:29:00,58.0,45.5,29.89,WSW,252,9.0,9.0,63,0.00,,,0.29,Wunderground v.1.15,2013-03-08 23:29:00,
2013-03-08 15:39:00,57.5,44.6,29.88,West,278,9.0,14.0,62,0.00,,,0.29,Wunderground v.1.15,2013-03-08 23:39:00,
2013-03-08 15:49:00,57.0,45.3,29.89,West,265,10.0,10.0,65,0.00,,,0.29,Wunderground v.1.15,2013-03-08 23:49:00,
2013-03-08 15:59:00,56.6,45.8,29.89,NW,318,8.0,8.0,67,0.00,,,0.29,Wunderground v.1.15,2013-03-08 23:59:00,
2013-03-08 16:09:00,56.6,46.5,29.88,West,278,10.0,14.0,69,0.00,,,0.29,Wunderground v.1.15,2013-03-09 00:09:00,
2013-03-08 16:19:00,56.9,46.8,29.88,West,264,8.0,15.0,69,0.00,,,0.29,Wunderground v.1.15,2013-03-09 00:19:00,
2013-03-08 16:29:00,56.5,46.4,29.88,WSW,252,10.0,11.0,69,0.00,,,0.29,Wunderground v.1.15,2013-03-09 00:29:00,
2013-03-08 16:39:00,56.3,47.0,29.88,SW,236,10.0,15.0,71,0.00,,,0.29,Wunderground v.1.15,2013-03-09 00:39:00,
2013-03-08 16:49:00,56.2,46.5,29.88,West,262,12.0,12.0,70,0.00,,,0.29,Wunderground v.1.15,2013-03-09 00:49:00,
2013-03-08 16:59:00,56.2,46.9,29.88,NW,313,9.0,9.0,71,0.00,,,0.29,Wunderground v.1.15,2013-03-09 00:59:00,
2013-03-08 17:09:00,56.2,46.2,29.89,WNW,294,8.0,8.0,69,0.00,,,0.29,Wunderground v.1.15,2013-03-09 01:09:00,
2013-03-08 17:19:00,56.5,46.4,29.90,West,269,7.0,13.0,69,0.00,,,0.29,Wunderground v.1.15,2013-03-09 01:19:00,
2013-03-08 17:29:00,55.9,47.0,29.90,West,271,9.0,9.0,72,0.00,,,0.29,Wunderground v.1.15,2013-03-09 01:29:00,
2013-03-08 17:39:00,55.1,47.0,29.90,WSW,249,8.0,8.0,74,0.00,,,0.29,Wunderground v.1.15,2013-03-09 01:39:00,
2013-03-08 17:49:00,54.8,46.3,29.91,WNW,286,8.0,8.0,73,0.00,,,0.29,Wunderground v.1.15,2013-03-09 01:49:00,
2013-03-08 17:59:00,54.8,46.3,29.91,West,264,6.0,7.0,73,0.00,,,0.29,Wunderground v.1.15,2013-03-09 01:59:00,
2013-03-08 18:09:00,54.8,46.3,29.92,WNW,292,7.0,7.0,73,0.00,,,0.29,Wunderground v.1.15,2013-03-09 02:09:00,
2013-03-08 18:19:00,54.8,45.9,29.93,WNW,301,7.0,7.0,72,0.00,,,0.29,Wunderground v.1.15,2013-03-09 02:19:00,
2013-03-08 18:29:00,55.1,45.5,29.93,West,281,9.0,9.0,70,0.00,,,0.29,Wunderground v.1.15,2013-03-09 02:29:00,
2013-03-08 18:39:00,55.4,45.8,29.93,West,259,7.0,7.0,70,0.00,,,0.29,Wunderground v.1.15,2013-03-09 02:39:00,
2013-03-08 18:49:00,55.4,45.8,29.94,West,281,8.0,8.0,70,0.00,,,0.29,Wunderground v.1.15,2013-03-09 02:49:00,
2013-03-08 18:59:00,55.0,44.6,29.94,West,275,8.0,11.0,68,0.00,,,0.29,Wunderground v.1.15,2013-03-09 02:59:00,
2013-03-08 19:09:00,54.7,44.0,29.94,West,277,9.0,9.0,67,0.00,,,0.29,Wunderground v.1.15,2013-03-09 03:09:00,
2013-03-08 19:19:00,54.5,43.8,29.95,WSW,242,11.0,11.0,67,0.00,,,0.29,Wunderground v.1.15,2013-03-09 03:19:00,
2013-03-08 19:29:00,54.4,43.7,29.95,NW,325,9.0,9.0,67,0.00,,,0.29,Wunderground v.1.15,2013-03-09 03:29:00,
2013-03-08 19:39:00,54.2,43.5,29.95,WNW,301,10.0,10.0,67,0.00,,,0.29,Wunderground v.1.15,2013-03-09 03:39:00,
2013-03-08 19:49:00,54.2,43.9,29.96,WNW,288,9.0,9.0,68,0.00,,,0.29,Wunderground v.1.15,2013-03-09 03:49:00,
2013-03-08 19:59:00,54.1,44.2,29.96,WNW,288,9.0,11.0,69,0.00,,,0.29,Wunderground v.1.15,2013-03-09 03:59:00,
2013-03-08 20:09:00,53.8,43.9,29.97,WNW,284,9.0,11.0,69,0.00,,,0.29,Wunderground v.1.15,2013-03-09 04:09:00,
2013-03-08 20:19:00,53.6,44.0,29.98,WNW,292,7.0,7.0,70,0.00,,,0.29,Wunderground v.1.15,2013-03-09 04:19:00,
2013-03-08 20:29:00,53.3,43.8,29.98,West,273,7.0,14.0,70,0.00,,,0.29,Wunderground v.1.15,2013-03-09 04:29:00,
2013-03-08 20:39:00,53.2,44.0,29.98,West,271,8.0,8.0,71,0.00,,,0.29,Wunderground v.1.15,2013-03-09 04:39:00,
2013-03-08 20:49:00,53.1,43.9,29.99,NW,305,8.0,8.0,71,0.00,,,0.29,Wunderground v.1.15,2013-03-09 04:49:00,
2013-03-08 20:59:00,52.8,44.0,29.99,West,274,7.0,10.0,72,0.00,,,0.29,Wunderground v.1.15,2013-03-09 04:59:00,
2013-03-08 21:09:00,52.8,44.4,29.99,WNW,297,8.0,8.0,73,0.00,,,0.29,Wunderground v.1.15,2013-03-09 05:09:00,
2013-03-08 21:19:00,52.8,44.0,30.00,WNW,288,6.0,10.0,72,0.00,,,0.29,Wunderground v.1.15,2013-03-09 05:19:00,
2013-03-08 21:29:00,52.8,43.7,30.00,WNW,302,7.0,9.0,71,0.00,,,0.29,Wunderground v.1.15,2013-03-09 05:29:00,
2013-03-08 21:39:00,52.6,42.3,30.00,NW,309,8.0,14.0,68,0.00,,,0.29,Wunderground v.1.15,2013-03-09 05:39:00,
2013-03-08 21:49:00,52.8,42.1,30.01,WNW,282,8.0,10.0,67,0.00,,,0.29,Wunderground v.1.15,2013-03-09 05:49:00,
2013-03-08 21:59:00,52.9,42.2,30.01,WNW,300,8.0,8.0,67,0.00,,,0.29,Wunderground v.1.15,2013-03-09 05:59:00,
2013-03-08 22:09:00,52.8,42.9,30.01,NW,304,7.0,13.0,69,0.00,,,0.29,Wunderground v.1.15,2013-03-09 06:09:00,
2013-03-08 22:19:00,52.5,43.0,30.01,WNW,298,7.0,7.0,70,0.00,,,0.29,Wunderground v.1.15,2013-03-09 06:19:00,
2013-03-08 22:29:00,52.3,43.2,30.01,West,273,7.0,7.0,71,0.00,,,0.29,Wunderground v.1.15,2013-03-09 06:29:00,
2013-03-08 22:39:00,52.2,43.4,30.02,WSW,246,8.0,11.0,72,0.00,,,0.29,Wunderground v.1.15,2013-03-09 06:39:00,
2013-03-08 22:49:00,52.0,43.3,30.01,WNW,303,9.0,9.0,72,0.00,,,0.29,Wunderground v.1.15,2013-03-09 06:49:00,
2013-03-08 22:59:00,52.0,43.3,30.01,West,277,10.0,10.0,72,0.00,,,0.29,Wunderground v.1.15,2013-03-09 06:59:00,
2013-03-08 23:09:00,51.9,43.5,30.00,WNW,288,10.0,10.0,73,0.00,,,0.29,Wunderground v.1.15,2013-03-09 07:09:00,
2013-03-08 23:19:00,51.7,43.3,30.00,WNW,296,10.0,14.0,73,0.00,,,0.29,Wunderground v.1.15,2013-03-09 07:19:00,
2013-03-08 23:29:00,51.6,43.2,30.00,West,279,9.0,10.0,73,0.00,,,0.29,Wunderground v.1.15,2013-03-09 07:29:00,
2013-03-08 23:39:00,51.4,43.0,30.00,NNW,327,10.0,10.0,73,0.00,,,0.29,Wunderground v.1.15,2013-03-09 07:39:00,
2013-03-08 23:49:00,51.3,42.6,30.01,WNW,302,9.0,14.0,72,0.00,,,0.29,Wunderground v.1.15,2013-03-09 07:49:00,
2013-03-08 23:59:00,51.3,42.6,30.01,West,277,8.0,8.0,72,0.00,,,0.29,Wunderground v.1.15,2013-03-09 07:59:00,